TimeEST,TemperatureF,Dew PointF,Humidity,Sea Level PressureIn,VisibilityMPH,Wind Direction,Wind SpeedMPH,Gust SpeedMPH,PrecipitationIn,Events,Conditions,WindDirDegrees,DateUTC
12:12 AM,71.6,69.8,94,30.04,2.5,Calm,Calm,-,N/A,,Mostly Cloudy,0,2012-12-10 05:12:00
12:18 AM,71.6,71.6,100,30.03,1.0,Calm,Calm,-,N/A,,Mist,0,2012-12-10 05:18:00
12:21 AM,71.6,71.6,100,30.03,0.8,Calm,Calm,-,N/A,,Mist,0,2012-12-10 05:21:00
12:53 AM,70.0,70.0,100,30.03,0.2,Calm,Calm,-,N/A,Fog,Fog,0,2012-12-10 05:53:00
1:00 AM,69.8,69.8,100,30.03,0.5,Calm,Calm,-,N/A,Fog,Fog,0,2012-12-10 06:00:00
1:18 AM,69.8,69.8,100,30.02,1.2,Calm,Calm,-,N/A,,Overcast,0,2012-12-10 06:18:00
1:27 AM,71.6,69.8,94,30.02,0.5,Calm,Calm,-,N/A,Fog,Fog,0,2012-12-10 06:27:00
1:44 AM,71.6,71.6,100,30.02,3.0,Calm,Calm,-,N/A,,Mostly Cloudy,0,2012-12-10 06:44:00
1:49 AM,71.6,71.6,100,30.02,1.8,Calm,Calm,-,N/A,,Mostly Cloudy,0,2012-12-10 06:49:00
1:53 AM,69.1,69.1,100,30.02,0.8,Calm,Calm,-,N/A,,Mist,0,2012-12-10 06:53:00
2:36 AM,69.8,69.8,100,30.01,2.5,Calm,Calm,-,N/A,,Overcast,0,2012-12-10 07:36:00
2:43 AM,69.8,69.8,100,30.01,0.8,Calm,Calm,-,N/A,,Mist,0,2012-12-10 07:43:00
2:50 AM,69.8,69.8,100,30.00,0.2,Calm,Calm,-,N/A,Fog,Fog,0,2012-12-10 07:50:00
2:53 AM,70.0,70.0,100,30.00,0.2,Calm,Calm,-,N/A,Fog,Fog,0,2012-12-10 07:53:00
3:11 AM,69.8,69.8,100,30.00,0.5,Calm,Calm,-,N/A,Fog,Fog,0,2012-12-10 08:11:00
3:15 AM,69.8,69.8,100,30.00,0.2,Calm,Calm,-,N/A,Fog,Fog,0,2012-12-10 08:15:00
3:24 AM,68.0,68.0,100,30.00,0.5,Calm,Calm,-,N/A,Fog,Fog,0,2012-12-10 08:24:00
3:51 AM,68.0,68.0,100,29.99,2.0,Calm,Calm,-,N/A,,Mostly Cloudy,0,2012-12-10 08:51:00
3:53 AM,68.0,68.0,100,29.99,1.8,Calm,Calm,-,N/A,,Mostly Cloudy,0,2012-12-10 08:53:00
4:02 AM,68.0,68.0,100,29.99,0.2,Calm,Calm,-,N/A,Fog,Fog,0,2012-12-10 09:02:00
4:25 AM,69.8,69.8,100,29.98,0.5,Calm,Calm,-,0.01,Fog,Fog,0,2012-12-10 09:25:00
4:46 AM,71.6,71.6,100,29.98,2.5,SE,3.5,-,0.01,,Mostly Cloudy,130,2012-12-10 09:46:00
4:49 AM,71.6,71.6,100,29.98,5.0,SE,3.5,-,0.01,,Scattered Clouds,130,2012-12-10 09:49:00
4:53 AM,71.1,71.1,100,29.98,7.0,ESE,3.5,-,0.01,,Scattered Clouds,120,2012-12-10 09:53:00
5:12 AM,71.6,71.6,100,29.98,1.8,Calm,Calm,-,N/A,,Clear,0,2012-12-10 10:12:00
5:18 AM,71.6,71.6,100,29.98,0.8,Calm,Calm,-,N/A,,Mist,0,2012-12-10 10:18:00
5:47 AM,71.6,71.6,100,29.98,2.0,SE,3.5,-,N/A,,Mostly Cloudy,130,2012-12-10 10:47:00
5:53 AM,71.1,71.1,100,29.99,8.0,SE,3.5,-,N/A,,Scattered Clouds,140,2012-12-10 10:53:00
6:53 AM,73.0,73.0,100,30.00,10.0,SSE,3.5,-,N/A,,Clear,150,2012-12-10 11:53:00
7:53 AM,75.0,73.9,96,30.02,10.0,Calm,Calm,-,N/A,,Partly Cloudy,0,2012-12-10 12:53:00
8:53 AM,79.0,75.0,88,30.02,10.0,SSE,8.1,-,N/A,,Mostly Cloudy,150,2012-12-10 13:53:00
9:53 AM,82.0,73.9,76,30.02,10.0,SSE,8.1,17.3,N/A,,Scattered Clouds,150,2012-12-10 14:53:00
10:53 AM,81.0,73.0,77,30.01,10.0,SSE,11.5,-,N/A,,Mostly Cloudy,160,2012-12-10 15:53:00
11:53 AM,82.0,73.0,74,29.99,10.0,SSE,11.5,-,N/A,,Scattered Clouds,150,2012-12-10 16:53:00
12:53 PM,82.9,73.0,72,29.96,10.0,SSE,10.4,-,N/A,,Mostly Cloudy,160,2012-12-10 17:53:00
1:24 PM,82.4,73.4,74,29.95,10.0,SSE,10.4,-,N/A,,Mostly Cloudy,160,2012-12-10 18:24:00
1:53 PM,82.0,73.0,74,29.94,10.0,SSE,9.2,16.1,N/A,,Overcast,160,2012-12-10 18:53:00
2:10 PM,82.4,73.4,74,29.95,10.0,South,12.7,-,N/A,,Mostly Cloudy,180,2012-12-10 19:10:00
2:53 PM,82.9,72.0,69,29.94,10.0,South,8.1,-,N/A,,Partly Cloudy,170,2012-12-10 19:53:00
3:53 PM,82.0,72.0,71,29.93,10.0,South,9.2,-,N/A,,Scattered Clouds,180,2012-12-10 20:53:00
4:53 PM,80.1,73.0,79,29.94,10.0,SSE,8.1,-,N/A,,Scattered Clouds,160,2012-12-10 21:53:00
5:10 PM,80.6,73.4,79,29.94,10.0,South,8.1,-,N/A,,Mostly Cloudy,180,2012-12-10 22:10:00
5:18 PM,80.6,73.4,79,29.95,10.0,South,6.9,-,N/A,,Scattered Clouds,170,2012-12-10 22:18:00
5:30 PM,80.6,73.4,79,29.95,10.0,South,4.6,-,N/A,,Mostly Cloudy,180,2012-12-10 22:30:00
5:42 PM,78.8,73.4,83,29.95,10.0,South,6.9,-,N/A,,Scattered Clouds,170,2012-12-10 22:42:00
5:53 PM,79.0,73.9,84,29.95,10.0,South,5.8,-,N/A,,Partly Cloudy,170,2012-12-10 22:53:00
6:53 PM,78.1,73.9,87,29.95,10.0,South,5.8,-,N/A,,Clear,170,2012-12-10 23:53:00
7:53 PM,78.1,73.9,87,29.96,10.0,South,5.8,-,N/A,,Clear,170,2012-12-11 00:53:00
8:53 PM,78.1,75.0,90,29.98,10.0,SSE,4.6,-,N/A,,Clear,160,2012-12-11 01:53:00
9:53 PM,78.1,75.0,90,29.98,10.0,SSE,8.1,-,N/A,,Clear,160,2012-12-11 02:53:00
10:53 PM,77.0,73.9,90,29.97,10.0,SSE,6.9,-,N/A,,Clear,150,2012-12-11 03:53:00
11:53 PM,77.0,73.9,90,29.97,10.0,SSE,6.9,-,N/A,,Clear,150,2012-12-11 04:53:00